• In Moldova, Republic
  • List of Countries
  • For 7 days
  • Water Temperature
  • Satellite Maps
  • Weather Map
  • Weather Widgets
  • user-avatar
    Login

    Hourly Weather Innsbruck

    Today, 22 August, Tuesday

    Time Temperature Precipitation Wind Pressure Humidity
    00:00 +3°C° 0 mm 1 mps 599 mmHg 92%
    01:00 +3°C° 0 mm 1 mps 599 mmHg 92%
    02:00 +3°C° 0 mm 1 mps 598 mmHg 91%
    03:00 +3°C° 0 mm 1 mps 598 mmHg 91%
    04:00 +3°C° 0 mm 1 mps 598 mmHg 90%
    05:00 +4°C° 0 mm 1 mps 599 mmHg 85%
    06:00 +5°C° 0 mm 1 mps 600 mmHg 80%
    07:00 +7°C° 0 mm 1 mps 600 mmHg 73%
    08:00 +10°C° 0 mm 1 mps 601 mmHg 66%
    09:00 +12°C° 0 mm 1 mps 602 mmHg 59%
    10:00 +14°C° 0 mm 1 mps 603 mmHg 51%
    11:00 +15°C° 0 mm 1 mps 603 mmHg 49%
    12:00 +16°C° 0 mm 2 mps 603 mmHg 47%
    13:00 +17°C° 0 mm 2 mps 603 mmHg 44%
    14:00 +16°C° 0 mm 2 mps 603 mmHg 47%
    15:00 +16°C° 0 mm 2 mps 602 mmHg 50%
    16:00 +16°C° 0 mm 3 mps 602 mmHg 52%
    17:00 +14°C° 0 mm 2 mps 601 mmHg 63%
    18:00 +12°C° 0 mm 2 mps 600 mmHg 75%
    19:00 +10°C° 0 mm 1 mps 600 mmHg 86%
    20:00 +9°C° 0 mm 1 mps 599 mmHg 89%
    21:00 +8°C° 0 mm 1 mps 599 mmHg 92%
    22:00 +7°C° 0 mm 1 mps 599 mmHg 95%
    23:00 +7°C° 0 mm 1 mps 598 mmHg 95%

    Tomorrow, 23 August, Wednesday

    Time Temperature Precipitation Wind Pressure Humidity
    00:00 +6°C° 0 mm 1 mps 598 mmHg 95%
    01:00 +6°C° 0 mm 1 mps 598 mmHg 95%
    02:00 +6°C° 0 mm 1 mps 598 mmHg 93%
    03:00 +5°C° 0 mm 1 mps 597 mmHg 91%
    04:00 +5°C° 0 mm 1 mps 597 mmHg 88%
    05:00 +7°C° 0 mm 1 mps 598 mmHg 83%
    06:00 +8°C° 0 mm 1 mps 599 mmHg 78%
    07:00 +10°C° 0 mm 1 mps 600 mmHg 73%
    08:00 +12°C° 0 mm 1 mps 601 mmHg 62%
    09:00 +14°C° 0 mm 1 mps 602 mmHg 52%
    10:00 +18°C° 0 mm 1 mps 603 mmHg 42%
    11:00 +18°C° 0 mm 2 mps 603 mmHg 40%
    12:00 +18°C° 0 mm 2 mps 603 mmHg 39%
    13:00 +19°C° 0 mm 2 mps 603 mmHg 37%
    14:00 +19°C° 0 mm 2 mps 603 mmHg 38%
    15:00 +19°C° 0 mm 3 mps 603 mmHg 40%
    16:00 +19°C° 0 mm 3 mps 603 mmHg 41%
    17:00 +16°C° 0.1 mm 2 mps 602 mmHg 53%
    18:00 +14°C° 0.1 mm 2 mps 601 mmHg 64%
    19:00 +11°C° 0.1 mm 1 mps 600 mmHg 75%
    20:00 +10°C° 0 mm 1 mps 600 mmHg 77%
    21:00 +9°C° 0 mm 1 mps 600 mmHg 79%
    22:00 +8°C° 0 mm 1 mps 599 mmHg 80%
    23:00 +8°C° 0 mm 1 mps 599 mmHg 78%

    Day after tomorrow, 24 August, Thursday

    Time Temperature Precipitation Wind Pressure Humidity
    00:00 +8°C° 0 mm 1 mps 599 mmHg 76%
    01:00 +8°C° 0 mm 1 mps 599 mmHg 73%
    02:00 +8°C° 0 mm 1 mps 599 mmHg 72%
    03:00 +7°C° 0 mm 1 mps 599 mmHg 72%
    04:00 +7°C° 0 mm 1 mps 599 mmHg 71%
    05:00 +9°C° 0 mm 1 mps 599 mmHg 68%
    06:00 +10°C° 0 mm 1 mps 600 mmHg 66%
    07:00 +12°C° 0 mm 1 mps 601 mmHg 63%
    08:00 +14°C° 0 mm 1 mps 602 mmHg 56%
    09:00 +16°C° 0 mm 1 mps 603 mmHg 49%
    10:00 +18°C° 0 mm 0 mps 604 mmHg 42%
    11:00 +20°C° 0 mm 1 mps 604 mmHg 40%
    12:00 +21°C° 0 mm 1 mps 604 mmHg 39%
    13:00 +22°C° 0 mm 1 mps 604 mmHg 37%
    14:00 +21°C° 0.3 mm 1 mps 604 mmHg 43%
    15:00 +20°C° 0.3 mm 1 mps 603 mmHg 50%
    16:00 +19°C° 0.3 mm 1 mps 603 mmHg 56%
    17:00 +16°C° 1.3 mm 1 mps 602 mmHg 66%
    18:00 +14°C° 1.3 mm 1 mps 602 mmHg 77%
    19:00 +11°C° 1.3 mm 0 mps 601 mmHg 87%
    20:00 +10°C° 0.6 mm 0 mps 601 mmHg 88%
    21:00 +11°C° 0.6 mm 1 mps 601 mmHg 90%
    22:00 +10°C° 0.6 mm 1 mps 601 mmHg 91%
    23:00 +10°C° 0.2 mm 1 mps 601 mmHg 91%

    25 August, Friday

    Time Temperature Precipitation Wind Pressure Humidity
    00:00 +10°C° 0.2 mm 1 mps 601 mmHg 91%
    01:00 +10°C° 0.2 mm 1 mps 601 mmHg 91%
    02:00 +9°C° 0.1 mm 1 mps 600 mmHg 91%
    03:00 +9°C° 0.1 mm 1 mps 600 mmHg 91%
    04:00 +8°C° 0.1 mm 1 mps 600 mmHg 91%
    05:00 +9°C° 0 mm 1 mps 600 mmHg 88%
    06:00 +10°C° 0 mm 1 mps 601 mmHg 86%
    07:00 +11°C° 0 mm 1 mps 601 mmHg 83%
    08:00 +14°C° 0 mm 1 mps 602 mmHg 72%
    09:00 +16°C° 0 mm 1 mps 603 mmHg 60%
    10:00 +18°C° 0 mm 0 mps 604 mmHg 49%
    11:00 +19°C° 0.1 mm 0 mps 605 mmHg 46%
    12:00 +22°C° 0.1 mm 1 mps 605 mmHg 43%
    13:00 +22°C° 0.1 mm 1 mps 605 mmHg 40%
    14:00 +22°C° 0.2 mm 1 mps 604 mmHg 42%
    15:00 +21°C° 0.2 mm 1 mps 604 mmHg 44%
    16:00 +21°C° 0.2 mm 1 mps 604 mmHg 47%
    17:00 +19°C° 0.2 mm 1 mps 603 mmHg 58%
    18:00 +15°C° 0.2 mm 1 mps 602 mmHg 69%
    19:00 +12°C° 0.2 mm 0 mps 601 mmHg 80%
    20:00 +12°C° 0.2 mm 1 mps 601 mmHg 81%
    21:00 +12°C° 0.2 mm 1 mps 601 mmHg 81%
    22:00 +10°C° 0.2 mm 2 mps 601 mmHg 82%
    23:00 +10°C° 0.1 mm 2 mps 601 mmHg 81%

    26 August, Saturday

    Time Temperature Precipitation Wind Pressure Humidity
    00:00 +10°C° 0.1 mm 2 mps 601 mmHg 79%
    01:00 +10°C° 0.1 mm 2 mps 601 mmHg 78%
    02:00 +10°C° 0 mm 2 mps 601 mmHg 77%
    03:00 +10°C° 0 mm 2 mps 600 mmHg 76%
    04:00 +11°C° 0 mm 1 mps 600 mmHg 75%
    05:00 +12°C° 0 mm 1 mps 601 mmHg 73%
    06:00 +12°C° 0 mm 1 mps 601 mmHg 71%
    07:00 +13°C° 0 mm 1 mps 602 mmHg 70%
    08:00 +16°C° 0 mm 1 mps 603 mmHg 60%
    09:00 +19°C° 0 mm 1 mps 604 mmHg 51%
    10:00 +22°C° 0 mm 1 mps 605 mmHg 41%
    11:00 +22°C° 0 mm 1 mps 605 mmHg 39%
    12:00 +23°C° 0 mm 1 mps 605 mmHg 38%
    13:00 +24°C° 0 mm 2 mps 605 mmHg 36%
    14:00 +23°C° 0 mm 2 mps 604 mmHg 38%
    15:00 +23°C° 0 mm 2 mps 604 mmHg 40%
    16:00 +21°C° 0 mm 2 mps 604 mmHg 42%
    17:00 +20°C° 0.3 mm 1 mps 603 mmHg 54%
    18:00 +18°C° 0.3 mm 1 mps 602 mmHg 66%
    19:00 +14°C° 0.3 mm 1 mps 601 mmHg 78%
    20:00 +13°C° 0.5 mm 1 mps 601 mmHg 78%
    21:00 +13°C° 0.5 mm 1 mps 601 mmHg 78%
    22:00 +12°C° 0.5 mm 2 mps 601 mmHg 78%
    23:00 +12°C° 0.2 mm 2 mps 601 mmHg 78%

    27 August, Sunday

    Time Temperature Precipitation Wind Pressure Humidity
    00:00 +10°C° 0.2 mm 2 mps 600 mmHg 78%
    01:00 +10°C° 0.2 mm 2 mps 600 mmHg 79%
    02:00 +9°C° 0.5 mm 2 mps 600 mmHg 79%
    03:00 +10°C° 0.5 mm 1 mps 600 mmHg 79%
    04:00 +10°C° 0.5 mm 1 mps 599 mmHg 79%
    05:00 +11°C° 0.3 mm 1 mps 600 mmHg 76%
    06:00 +12°C° 0.3 mm 1 mps 600 mmHg 73%
    07:00 +13°C° 0.3 mm 1 mps 601 mmHg 71%
    08:00 +15°C° 0.1 mm 1 mps 602 mmHg 61%
    09:00 +19°C° 0.1 mm 1 mps 603 mmHg 52%
    10:00 +20°C° 0.1 mm 0 mps 604 mmHg 43%
    11:00 +20°C° 0.1 mm 0 mps 604 mmHg 41%
    12:00 +23°C° 0.1 mm 1 mps 604 mmHg 39%
    13:00 +24°C° 0.1 mm 1 mps 604 mmHg 37%
    14:00 +23°C° 0.1 mm 1 mps 604 mmHg 40%
    15:00 +23°C° 0.1 mm 1 mps 603 mmHg 43%
    16:00 +22°C° 0.1 mm 1 mps 603 mmHg 45%
    17:00 +20°C° 0.5 mm 1 mps 602 mmHg 56%
    18:00 +18°C° 0.5 mm 1 mps 601 mmHg 66%
    19:00 +14°C° 0.5 mm 0 mps 601 mmHg 76%
    20:00 +14°C° 1 mm 1 mps 601 mmHg 77%
    21:00 +14°C° 1 mm 1 mps 601 mmHg 78%
    22:00 +13°C° 1 mm 1 mps 601 mmHg 79%
    23:00 +12°C° 0.3 mm 1 mps 600 mmHg 79%
    Show more